AS428 Weather Reports


Display with metric or nautical units.
time (UTC)temp
F
wind
direction
speed
MPH
gust
MPH
rain 1hr
in
rain 24hr
in
rain mn
in
humidity
%
barometer
mb
20260905162827 89 228 3.0 4.0 0.00 0.00 0.00 57 1016.3
20260905161926 89 122 4.0 5.0 0.00 0.00 0.00 56 1016.3
20260905160927 88 160 3.0 4.0 0.00 0.00 0.00 57 1016.7
20260905155928 87 91 1.0 4.0 0.00 0.00 0.00 59 1017.0
20260905154930 86 162 1.0 5.0 0.00 0.00 0.00 59 1017.0
20260905154026 86 210 3.0 6.0 0.00 0.00 0.00 61 1017.0
20260905153028 85 161 2.0 3.0 0.00 0.00 0.00 61 1017.0
20260905152127 84 163 2.0 5.0 0.00 0.00 0.00 63 1016.8
20260905151127 83 68 3.0 6.0 0.00 0.00 0.00 64 1016.8
20260905150226 82 154 5.0 8.0 0.00 0.00 0.00 65 1016.7
20260905144228 81 157 5.0 9.0 0.00 0.00 0.00 71 1017.4
20260905143227 81 166 6.0 11.0 0.00 0.00 0.00 73 1017.4
20260905141227 79 74 1.0 3.0 0.00 0.00 0.00 78 1017.1
20260905140226 78 166 3.0 6.0 0.00 0.00 0.00 81 1017.3
20260905135258 77 131 2.0 7.0 0.00 0.00 0.00 85 1017.2
20260905134327 77 163 4.0 7.0 0.00 0.00 0.00 88 1017.4
20260905133329 77 152 3.0 7.0 0.00 0.00 0.00 87 1017.2
20260905132328 78 134 2.0 5.0 0.00 0.00 0.00 89 1017.5
20260905131328 78 87 2.0 9.0 0.00 0.00 0.00 90 1017.7
20260905130327 77 148 1.0 3.0 0.00 0.00 0.00 93 1017.3
20260905124428 76 92 3.0 7.0 0.00 0.00 0.00 94 1017.2
20260905123429 76 180 0.0 0.0 0.00 0.00 0.00 95 1016.5
20260905122426 76 180 0.0 0.0 0.00 0.00 0.00 96 1016.2
20260905120429 74 180 1.0 2.0 0.00 0.00 0.00 96 1016.1
20260905115526 74 163 0.0 2.0 0.00 0.00 0.00 96 1016.2
20260905114528 74 90 0.0 0.0 0.00 0.00 0.00 96 1016.1
20260905113529 74 90 0.0 0.0 0.00 0.00 0.00 96 1016.0
20260905112628 74 90 0.0 0.0 0.00 0.00 0.00 96 1015.9
20260905112526 74 90 0.0 0.0 0.00 0.00 0.00 96 1015.8
20260905111530 75 90 0.0 0.0 0.00 0.00 0.00 96 1015.8
20260905110626 75 90 0.0 0.0 0.00 0.00 0.00 95 1015.6
20260905105726 75 90 0.0 0.0 0.00 0.00 0.00 95 1015.5
20260905104728 75 90 0.0 0.0 0.00 0.00 0.00 96 1015.5
20260905103729 75 90 0.0 0.0 0.00 0.00 0.00 95 1015.4
20260905101729 75 90 0.0 0.0 0.00 0.00 0.00 96 1015.7
20260905100728 75 90 0.0 0.0 0.00 0.00 0.00 95 1015.5
20260905094728 76 90 0.0 0.0 0.00 0.00 0.00 95 1015.5
20260905093726 75 90 0.0 0.0 0.00 0.00 0.00 95 1015.5
20260905091727 75 90 0.0 0.0 0.00 0.00 0.00 95 1015.3
20260905090728 75 90 0.0 0.0 0.00 0.00 0.00 94 1015.1
20260905085728 75 90 0.0 0.0 0.00 0.00 0.00 95 1015.3
20260905084729 75 90 0.0 0.0 0.00 0.00 0.00 94 1015.3
20260905083728 76 90 0.0 0.0 0.00 0.00 0.00 94 1015.1
20260905082727 76 90 0.0 0.0 0.00 0.00 0.00 94 1015.0
20260905081726 76 90 0.0 0.0 0.00 0.00 0.00 93 1014.9
20260905080728 76 90 0.0 0.0 0.00 0.00 0.00 94 1014.9
20260905075727 76 90 0.0 0.0 0.00 0.00 0.00 94 1014.8
20260905073830 76 90 0.0 0.0 0.00 0.00 0.00 93 1014.9
20260905072829 76 90 0.0 0.0 0.00 0.00 0.00 93 1015.0
20260905071927 77 90 0.0 0.0 0.00 0.00 0.00 93 1015.1
20260905070928 77 90 0.0 0.0 0.00 0.00 0.00 92 1015.3
20260905065928 77 90 0.0 0.0 0.00 0.00 0.00 91 1015.3
20260905064027 77 90 0.0 0.0 0.00 0.00 0.00 90 1015.4
20260905062126 78 90 0.0 0.0 0.00 0.00 0.00 89 1015.6
20260905060129 79 90 0.0 0.0 0.00 0.00 0.00 87 1015.8
20260905054128 79 90 0.0 0.0 0.00 0.00 0.00 86 1015.9
20260905052226 79 90 0.0 0.0 0.00 0.00 0.00 86 1016.0
20260905051228 79 90 0.0 0.0 0.00 0.00 0.00 86 1016.0
20260905050229 79 157 0.0 0.0 0.00 0.00 0.00 85 1016.0
20260905045326 79 157 0.0 0.0 0.00 0.00 0.00 86 1016.1
20260905043328 79 157 0.0 0.0 0.00 0.00 0.00 85 1016.2
20260905042427 79 157 0.0 0.0 0.00 0.00 0.00 85 1016.0
20260905041428 80 157 0.0 0.0 0.00 0.00 0.00 85 1015.9
20260905040428 79 157 0.0 0.0 0.00 0.00 0.00 82 1016.1
20260905035512 80 157 0.0 0.0 0.00 0.00 0.00 82 1016.2
20260905035413 80 157 0.0 0.0 0.00 0.00 0.00 83 1016.1
20260905034412 80 157 0.0 0.0 0.00 0.00 0.00 82 1016.0
20260905033510 80 157 0.0 0.0 0.00 0.00 0.00 82 1016.0
20260905032511 81 157 0.0 0.0 0.00 0.00 0.00 79 1015.8
20260905030513 82 157 0.0 0.0 0.00 0.00 0.00 79 1016.0
20260905025511 82 157 0.0 0.0 0.00 0.00 0.00 78 1016.1
20260905024513 82 157 0.0 0.0 0.00 0.00 0.00 77 1016.1
20260905022511 83 157 0.0 0.0 0.00 0.00 0.00 74 1016.0
20260905022412 83 157 0.0 0.0 0.00 0.00 0.00 74 1016.2
20260905021414 83 157 0.0 0.0 0.00 0.00 0.00 73 1016.1
20260905020510 83 157 0.0 0.0 0.00 0.00 0.00 73 1015.9
20260905014610 84 180 0.0 0.0 0.00 0.00 0.00 72 1015.8
20260905013610 85 180 0.0 0.0 0.00 0.00 0.00 70 1015.7
20260905011710 85 180 0.0 0.0 0.00 0.00 0.00 69 1015.7
20260905011610 85 180 0.0 0.0 0.00 0.00 0.00 69 1015.6
20260905010613 86 180 0.0 0.0 0.00 0.00 0.00 67 1015.5
20260905005612 87 180 0.0 0.0 0.00 0.00 0.00 66 1015.5
20260905004709 87 202 0.0 0.0 0.00 0.00 0.00 65 1015.5
20260905003714 88 202 0.0 0.0 0.00 0.00 0.00 62 1015.4
20260905002812 89 202 0.0 0.0 0.00 0.00 0.00 59 1015.3
20260905001813 90 202 0.0 0.0 0.00 0.00 0.00 58 1015.3
20260905000811 91 202 0.0 0.0 0.00 0.00 0.00 56 1015.3
20260905000711 91 202 0.0 0.0 0.00 0.00 0.00 57 1015.3
20260904235713 91 225 0.0 1.0 0.00 0.00 0.00 56 1015.2
20260904232711 94 228 0.0 1.0 0.00 0.00 0.00 50 1015.3
20260904231712 94 270 0.0 1.0 0.00 0.00 0.00 49 1015.2
20260904224712 96 270 1.0 2.0 0.00 0.00 0.00 44 1015.4
20260904224611 96 270 1.0 2.0 0.00 0.00 0.00 44 1015.4
20260904223611 96 270 0.0 1.0 0.00 0.00 0.00 46 1015.4
20260904223512 96 270 2.0 4.0 0.00 0.00 0.00 46 1015.3
20260904222611 96 239 0.0 1.0 0.00 0.00 0.00 46 1015.3
20260904221612 96 256 3.0 4.0 0.00 0.00 0.00 45 1015.4
20260904220611 96 270 2.0 2.0 0.00 0.00 0.00 44 1015.5
20260904215612 96 258 4.0 5.0 0.00 0.00 0.00 44 1015.6
20260904214612 96 270 1.0 2.0 0.00 0.00 0.00 44 1015.6
20260904213709 96 270 3.0 4.0 0.00 0.00 0.00 44 1015.7
20260904212809 96 289 1.0 2.0 0.00 0.00 0.00 43 1015.7
20260904211812 97 280 0.0 0.0 0.00 0.00 0.00 43 1015.9
20260904210812 97 327 0.0 3.0 0.00 0.00 0.00 43 1015.8
20260904205911 97 270 0.0 0.0 0.00 0.00 0.00 44 1016.0
20260904204913 96 305 1.0 3.0 0.00 0.00 0.00 46 1016.0
20260904203913 97 253 4.0 5.0 0.00 0.00 0.00 46 1016.1
20260904203010 96 343 0.0 3.0 0.00 0.00 0.00 46 1016.3
20260904202013 96 213 3.0 5.0 0.00 0.00 0.00 47 1016.4
20260904201111 96 224 5.0 9.0 0.00 0.00 0.00 47 1016.5
20260904195210 96 282 2.0 4.0 0.00 0.00 0.00 46 1016.7
20260904194212 96 355 1.0 2.0 0.00 0.00 0.00 47 1016.8
20260904193213 96 346 2.0 4.0 0.00 0.00 0.00 47 1017.1
20260904192211 96 7 2.0 4.0 0.00 0.00 0.00 48 1017.3
20260904191212 96 265 3.0 6.0 0.00 0.00 0.00 49 1017.5
20260904190212 96 280 2.0 6.0 0.00 0.00 0.00 49 1017.6
20260904185311 96 305 1.0 3.0 0.00 0.00 0.00 49 1017.5
20260904183410 96 323 3.0 6.0 0.00 0.00 0.00 47 1017.9
20260904182414 97 270 1.0 4.0 0.00 0.00 0.00 49 1018.2
20260904181411 96 332 2.0 4.0 0.00 0.00 0.00 49 1018.0
20260904180410 96 271 2.0 4.0 0.00 0.00 0.00 49 1018.3
20260904175412 95 225 1.0 3.0 0.00 0.00 0.00 51 1018.4
20260904174412 95 270 0.0 2.0 0.00 0.00 0.00 52 1018.5
20260904173510 94 347 4.0 7.0 0.00 0.00 0.00 52 1018.4
20260904173409 94 345 2.0 4.0 0.00 0.00 0.00 53 1018.4
20260904171510 94 247 4.0 6.0 0.00 0.00 0.00 53 1018.7
20260904165512 94 252 2.0 6.0 0.00 0.00 0.00 53 1018.9
20260904164510 95 261 1.0 2.0 0.00 0.00 0.00 53 1018.8
20260904163512 94 260 2.0 4.0 0.00 0.00 0.00 55 1018.9